Date String (YYYY-MM-DD hh:mm:ss) UTC,Instrument flags,Ambient pressure (hPa),Sample flow (lpm),Bypass flow (lpm),Sample temperature (°C),Ambient temperature (°C),ASC tube jacket temperature (°C),LED temperature (°C),Box temperature (°C),Sample RH (%),Span deviation,Mass concentration (μg/m³),Mass concentration (μg/m³),Mass concentration (μg/m³)
DateTimeUTC,F1_M11,P_M11,Q1_M11,Q2_M11,T1_M11,T2_M11,T3_M11,T4_M11,T5_M11,U1_M11,ZSPAN_M11,X0_M11,X2_M11,X1_M11
2022-07-28 19:00:00,,0831.7,5.00,0.00,31.1,27.9,00.0,39.2,32.1,34.6,0002.0,0011.02,0006.39,0005.56
2022-07-28 19:01:00,,0831.7,4.99,0.00,31.2,27.8,00.0,39.2,32.0,34.2,0001.8,0011.08,0006.47,0005.60
2022-07-28 19:02:00,,0831.7,5.01,0.00,31.2,27.9,00.0,39.2,32.0,34.5,0001.8,0011.23,0006.54,0005.63
2022-07-28 19:03:00,,0831.7,5.00,0.00,31.1,28.0,00.0,39.3,32.0,34.8,0001.9,0011.96,0006.62,0005.69
2022-07-28 19:04:00,,0831.6,5.00,0.00,31.2,28.1,00.0,39.3,32.0,34.3,0001.6,0012.07,0006.62,0005.71
2022-07-28 19:05:00,,0831.6,4.99,0.00,31.2,28.2,00.0,39.3,32.0,34.2,0001.4,0012.46,0006.65,0005.72
2022-07-28 19:06:00,,0831.6,5.00,0.00,31.1,28.3,00.0,39.3,32.0,34.7,0001.4,0012.54,0006.67,0005.73
2022-07-28 19:07:00,,0831.6,5.00,0.00,31.1,28.4,00.0,39.3,32.0,34.0,0001.4,0012.53,0006.65,0005.72
2022-07-28 19:08:00,,0831.7,4.99,0.00,31.1,28.5,00.0,39.4,32.0,34.3,0001.4,0012.39,0006.60,0005.70
2022-07-28 19:09:00,,0831.6,5.01,0.00,31.1,28.6,00.0,39.4,32.0,34.1,0001.2,0012.00,0006.55,0005.67
2022-07-28 19:10:00,,0831.6,4.99,0.00,31.0,28.7,00.0,39.4,32.1,34.8,0000.9,0011.59,0006.52,0005.66
2022-07-28 19:11:00,,0831.6,5.01,0.00,31.1,28.7,00.0,39.4,32.1,34.9,0000.6,0011.79,0006.50,0005.62
2022-07-28 19:12:00,,0831.7,5.00,0.00,31.1,28.8,00.0,39.4,32.2,34.6,0000.7,0011.91,0006.46,0005.57
2022-07-28 19:13:00,,0831.7,5.00,0.00,31.2,28.8,00.0,39.4,32.2,34.1,0000.3,0011.87,0006.43,0005.53
2022-07-28 19:14:00,,0831.7,5.00,0.00,31.2,28.9,00.0,39.4,32.2,33.8,0000.2,0011.41,0006.40,0005.48
2022-07-28 19:15:00,,0831.7,5.00,0.00,31.3,28.9,00.0,39.5,32.2,33.9,0000.2,0011.68,0006.44,0005.44
2022-07-28 19:16:00,,0831.6,4.99,0.00,31.3,29.0,00.0,39.5,32.2,33.7,0000.2,0011.61,0006.49,0005.42
2022-07-28 19:17:00,,0831.6,5.00,0.00,31.2,29.0,00.0,39.5,32.3,33.8,0000.4,0011.80,0006.47,0005.40
2022-07-28 19:18:00,,0831.5,5.02,0.00,31.2,28.7,00.0,39.5,32.2,33.8,0000.6,0012.27,0006.45,0005.39
2022-07-28 19:19:00,,0831.5,5.00,0.00,31.2,27.9,00.0,39.4,32.1,33.9,0000.5,0012.55,0006.43,0005.36
2022-07-28 19:20:00,,0831.5,5.01,0.00,31.1,27.5,00.0,39.4,32.0,34.4,0000.9,0013.05,0006.43,0005.34
2022-07-28 19:21:00,,0831.5,4.99,0.00,31.0,27.3,00.0,39.4,31.9,34.8,0001.1,0013.17,0006.36,0005.31
2022-07-28 19:22:00,,0831.5,5.02,0.00,30.9,27.4,00.0,39.4,31.8,34.9,0001.3,0012.61,0006.32,0005.29
2022-07-28 19:23:00,,0831.4,4.99,0.00,30.9,27.5,00.0,39.4,31.8,35.0,0001.7,0012.48,0006.28,0005.28
2022-07-28 19:24:00,,0831.5,5.00,0.00,30.9,27.7,00.0,39.3,31.9,34.6,0002.2,0012.45,0006.24,0005.25
2022-07-28 19:25:00,,0831.5,5.01,0.00,31.0,27.8,00.0,39.3,31.9,34.6,0001.7,0012.69,0006.23,0005.25
2022-07-28 19:26:00,,0831.4,5.00,0.00,31.0,28.0,00.0,39.3,31.9,34.4,0001.7,0012.67,0006.19,0005.24
2022-07-28 19:27:00,,0831.4,4.99,0.00,30.9,28.1,00.0,39.3,31.9,34.2,0001.5,0012.51,0006.13,0005.23
2022-07-28 19:28:00,,0831.4,5.00,0.00,30.9,28.2,00.0,39.3,31.9,34.5,0001.5,0012.36,0006.13,0005.24
2022-07-28 19:29:00,,0831.4,5.00,0.00,30.9,28.3,00.0,39.3,31.9,34.7,0001.0,0012.45,0006.12,0005.24
2022-07-28 19:30:00,,0831.4,5.00,0.00,30.9,28.4,00.0,39.3,31.9,34.8,0000.8,0012.31,0006.14,0005.27
2022-07-28 19:31:00,,0831.3,4.99,0.00,30.9,28.5,00.0,39.3,32.0,34.8,0000.7,0012.01,0006.19,0005.28
2022-07-28 19:32:00,,0831.3,5.01,0.00,30.9,28.6,00.0,39.3,32.0,35.0,0000.6,0011.96,0006.23,0005.28
2022-07-28 19:33:00,,0831.3,5.00,0.00,31.0,28.6,00.0,39.3,32.0,34.6,0000.6,0011.85,0006.22,0005.28
2022-07-28 19:34:00,,0831.2,5.00,0.00,31.0,28.7,00.0,39.3,32.1,34.5,0000.3,0011.85,0006.22,0005.29
2022-07-28 19:35:00,,0831.2,5.00,0.00,31.0,28.7,00.0,39.3,32.1,34.5,-000.1,0011.93,0006.22,0005.31
2022-07-28 19:36:00,,0831.2,4.99,0.00,31.0,28.8,00.0,39.4,32.1,34.8,0000.5,0011.72,0006.23,0005.35
2022-07-28 19:37:00,,0831.2,5.01,0.00,31.0,28.8,00.0,39.4,32.1,35.1,0000.6,0011.53,0006.26,0005.37
2022-07-28 19:38:00,,0831.2,4.99,0.00,31.1,28.9,00.0,39.4,32.2,35.5,0000.6,0011.77,0006.27,0005.37
2022-07-28 19:39:00,,0831.2,4.99,0.00,31.4,28.9,00.0,39.4,32.4,34.5,0001.0,0011.65,0006.25,0005.34
2022-07-28 19:40:00,,0831.2,5.00,0.00,31.6,28.9,00.0,39.4,32.4,33.5,0001.4,0011.10,0006.26,0005.33
2022-07-28 19:41:00,,0831.2,5.00,0.00,31.7,29.0,00.0,39.5,32.4,33.3,0001.5,0010.97,0006.25,0005.32
2022-07-28 19:42:00,,0831.2,5.00,0.00,31.7,29.0,00.0,39.5,32.4,33.5,0001.1,0010.82,0006.22,0005.32
2022-07-28 19:43:00,,0831.2,5.00,0.00,31.7,28.7,00.0,39.6,32.3,33.6,0001.0,0010.60,0006.18,0005.35
2022-07-28 19:44:00,,0831.2,5.01,0.00,31.7,28.1,00.0,39.5,32.2,33.9,0000.6,0010.72,0006.23,0005.37
2022-07-28 19:45:00,,0831.1,5.00,0.00,31.7,27.9,00.0,39.6,32.2,34.3,0000.5,0011.16,0006.27,0005.38
2022-07-28 19:46:00,,0831.0,5.00,0.00,31.6,27.9,00.0,39.6,32.0,34.5,0001.0,0011.49,0006.30,0005.40
2022-07-28 19:47:00,,0831.0,5.00,0.00,31.5,27.9,00.0,39.6,32.0,34.9,0001.1,0012.84,0006.33,0005.41
2022-07-28 19:48:00,,0831.0,5.00,0.00,31.5,28.0,00.0,39.6,32.1,35.1,0001.4,0012.74,0006.33,0005.43
2022-07-28 19:49:00,,0831.0,5.00,0.00,31.5,28.2,00.0,39.6,32.2,34.9,0001.3,0012.51,0006.32,0005.45
2022-07-28 19:50:00,,0831.1,5.00,0.00,31.7,28.3,00.0,39.6,32.2,34.2,0001.0,0012.84,0006.34,0005.49
2022-07-28 19:51:00,,0831.1,5.00,0.00,31.7,28.4,00.0,39.6,32.3,33.8,0000.6,0013.38,0006.38,0005.55
2022-07-28 19:52:00,,0831.1,4.99,0.00,31.7,28.5,00.0,39.7,32.2,33.8,0000.4,0013.94,0006.39,0005.60
2022-07-28 19:53:00,,0831.2,5.01,0.00,31.7,28.6,00.0,39.7,32.2,34.5,0000.8,0014.02,0006.43,0005.65
2022-07-28 19:54:00,,0831.2,4.99,0.00,31.7,28.7,00.0,39.7,32.2,34.0,0001.1,0014.21,0006.47,0005.67
2022-07-28 19:55:00,,0831.2,5.00,0.00,31.6,28.7,00.0,39.7,32.2,33.9,0001.2,0014.37,0006.50,0005.69
2022-07-28 19:56:00,,0831.2,5.00,0.00,31.6,28.8,00.0,39.8,32.3,34.0,0001.5,0014.40,0006.52,0005.72
2022-07-28 19:57:00,,0831.2,5.01,0.00,31.6,28.9,00.0,39.8,32.3,34.1,0001.8,0014.13,0006.58,0005.78
2022-07-28 19:58:00,,0831.2,5.00,0.00,31.5,28.9,00.0,39.8,32.3,34.3,0001.7,0013.40,0006.64,0005.85
2022-07-28 19:59:00,,0831.1,4.99,0.00,31.5,29.0,00.0,39.8,32.3,34.7,0001.0,0012.31,0006.70,0005.93
